Location: Griffin Ranch
(33.6186°N, 110.6622°W)
Time: 00:13:04
(UTC-07:00)

Cosmos 1812 - Visible Passes

Search period start: 25 May 2016 00:00
Search period end: 04 June 2016 00:00
Orbit: 521 x 528 km, 82.5° (Epoch: 24 May)

Date Brightness Start Highest point End Pass type
(mag) Time Alt. Az. Time Alt. Az. Time Alt. Az.
25 May 6.0 20:31:23 10° W 20:33:04 12° WNW 20:34:45 10° NW visible
26 May 5.9 20:18:44 10° WSW 20:20:51 14° WNW 20:22:58 10° NW visible
27 May 5.8 20:06:12 10° WSW 20:08:38 16° WNW 20:11:05 10° NW visible
28 May 5.8 19:53:43 10° WSW 19:56:25 18° WNW 19:59:08 10° NNW visible
